Home > Weather > Levis > Past weeks

Flag for Canada Weather for the Past 2 Weeks in Levis, Quebec, Canada

Now
19 °F

Snow flurries. Overcast.


Feels Like: 10 °F
Forecast: 11 / 22 °F
Wind: 7 mph from Northeast

Location: Quebec Weather Station

Current Time: Feb 9, 2016 at 8:28:34 PM

Latest Report: Feb 9, 2016 at 7:48 PM


Visibility: 4 mi

Pressure: 29.65 "Hg

Humidity: 86%

Dew point: 16 °F

Location of LevisLocation

Historic Weather in Levis — Graph

°F

Levis Temperature Yesterday

Maximum temperature yesterday: 19 °F (at 2:47 PM)
Minimum temperature yesterday: 10 °F (at 4:00 AM)
Average temperature yesterday: 16 °F

High & Low Weather Summary for the Past Weeks

 TemperatureHumidityPressure
High41 °F (Feb 1, 10:00 AM)100% (Jan 26, 5:00 PM)30.46 "Hg (Jan 26, 5:00 PM)
Low7 °F (Feb 6, 2:00 AM)34% (Feb 7, 12:00 PM)29.31 "Hg (Feb 1, 10:00 AM)
Average22 °F77%29.92 "Hg
* Reported Jan 25 7:00 PM — Feb 9 7:00 PM, Levis, Weather by CustomWeather, © 2016

Note: Actual official high and low records may vary slightly from our data, if they occured in-between our weather recording intervals... More about our weather records

Advertising

Levis Weather History for the Previous 24 Hours

 ConditionsComfort  
Time TempWeatherWind HumidityBarometerVisibility
7:00 PM
Tue, Feb 9
19 °FSnow flurries. Overcast.9 mph79%29.65 "Hg3 mi
6:00 PM19 °FSnow flurries. Overcast.10 mph79%29.65 "Hg3 mi
5:00 PM19 °FSnow flurries. Overcast.10 mph79%29.66 "Hg4 mi
4:00 PM19 °FSnow flurries. Mostly cloudy.13 mph79%29.67 "Hg4 mi
3:55 PM19 °FSnow flurries. Mostly cloudy.10 mph73%29.67 "Hg4 mi
3:00 PM19 °FLight snow. Mostly cloudy.17 mph73%29.69 "Hg3 mi
2:00 PM19 °FLight snow. Overcast.17 mph79%29.71 "Hg2 mi
1:00 PM19 °FLight snow. Ice fog.17 mph79%29.73 "Hg2 mi
12:00 PM19 °FLight snow. Overcast.13 mph79%29.75 "Hg3 mi
11:00 AM19 °FLight snow. Overcast.12 mph79%29.78 "Hg2 mi
10:00 AM18 °FLight snow. Mostly cloudy.12 mph79%29.80 "Hg2 mi
9:00 AM16 °FLight snow. Ice fog.13 mph79%29.81 "Hg1 mi
8:00 AM16 °FLight snow. Ice fog.12 mph79%29.82 "Hg1 mi
7:00 AM18 °FSnow flurries. Overcast.16 mph62%29.82 "Hg6 mi
6:00 AM18 °FSnow flurries. Mostly cloudy.12 mph73%29.82 "Hg6 mi
5:00 AM18 °FSnow flurries. Mostly cloudy.10 mph68%29.82 "Hg10 mi
4:00 AM18 °FSnow flurries. Mostly cloudy.14 mph68%29.83 "Hg10 mi
3:00 AM18 °FSnow flurries. Mostly cloudy.13 mph73%29.87 "Hg6 mi
2:00 AM19 °FSnow flurries. Mostly cloudy.13 mph68%29.91 "Hg6 mi
1:00 AM19 °FSnow flurries. Mostly cloudy.12 mph68%29.91 "Hg6 mi
12:00 AM18 °FSnow flurries. Mostly cloudy.15 mph79%29.93 "Hg6 mi
11:00 PM
Mon, Feb 8
19 °FSnow flurries. Mostly cloudy.13 mph68%29.94 "Hg15 mi
10:00 PM18 °FMostly cloudy.13 mph68%29.96 "Hg15 mi
9:00 PM19 °FLight mixture of precip. Mostly cloudy.13 mph63%29.97 "Hg15 mi
8:00 PM19 °FLight mixture of precip. Mostly cloudy.17 mph58%29.98 "Hg15 mi
Weather by CustomWeather, © 2016

See weather overviewHow to use our weather pages